TimeAKST,TemperatureF,Dew PointF,Humidity,Sea Level PressureIn,VisibilityMPH,Wind Direction,Wind SpeedMPH,Gust SpeedMPH,PrecipitationIn,Events,Conditions,WindDirDegrees,DateUTC
12:16 AM,37.4,28.4,70,29.99,10.0,WSW,5.8,-,N/A,,Clear,240,2013-01-18 09:16:00
12:36 AM,37.4,28.4,70,30.00,10.0,SW,5.8,-,N/A,,Clear,220,2013-01-18 09:36:00
12:56 AM,35.6,28.4,75,30.00,10.0,WSW,4.6,-,N/A,,Clear,250,2013-01-18 09:56:00
1:16 AM,37.4,30.2,75,30.01,10.0,East,4.6,-,N/A,,Clear,100,2013-01-18 10:16:00
1:36 AM,33.8,28.4,81,30.03,10.0,ESE,4.6,-,N/A,,Mostly Cloudy,120,2013-01-18 10:36:00
1:56 AM,35.6,30.2,81,30.03,10.0,SSE,5.8,-,N/A,,Overcast,150,2013-01-18 10:56:00
2:16 AM,35.6,30.2,81,30.04,10.0,ESE,5.8,-,N/A,,Overcast,120,2013-01-18 11:16:00
2:36 AM,35.6,32.0,87,30.04,10.0,East,5.8,-,N/A,,Overcast,100,2013-01-18 11:36:00
2:56 AM,35.6,30.2,81,30.05,10.0,SE,5.8,-,N/A,,Overcast,130,2013-01-18 11:56:00
3:16 AM,35.6,30.2,81,30.06,10.0,SE,5.8,-,N/A,,Overcast,130,2013-01-18 12:16:00
3:36 AM,35.6,32.0,87,30.06,10.0,ESE,5.8,-,N/A,,Overcast,120,2013-01-18 12:36:00
3:56 AM,35.6,32.0,87,30.07,10.0,SE,4.6,-,N/A,,Overcast,130,2013-01-18 12:56:00
4:16 AM,35.6,32.0,87,30.07,10.0,ESE,8.1,-,N/A,,Overcast,120,2013-01-18 13:16:00
4:36 AM,35.6,30.2,81,30.07,10.0,SE,5.8,-,N/A,,Overcast,130,2013-01-18 13:36:00
4:56 AM,35.6,32.0,87,30.08,10.0,ESE,4.6,-,N/A,,Overcast,110,2013-01-18 13:56:00
5:16 AM,35.6,32.0,87,30.08,10.0,ESE,6.9,-,N/A,,Overcast,110,2013-01-18 14:16:00
5:36 AM,35.6,30.2,81,30.08,10.0,SE,6.9,-,N/A,,Overcast,140,2013-01-18 14:36:00
5:56 AM,35.6,30.2,81,30.09,10.0,SSE,5.8,-,N/A,,Overcast,160,2013-01-18 14:56:00
6:16 AM,35.6,30.2,81,30.10,10.0,South,3.5,-,N/A,,Overcast,190,2013-01-18 15:16:00
6:36 AM,35.6,30.2,81,30.10,10.0,East,3.5,-,N/A,,Overcast,100,2013-01-18 15:36:00
6:56 AM,35.6,32.0,87,30.11,10.0,SE,4.6,-,N/A,,Overcast,140,2013-01-18 15:56:00
7:16 AM,35.6,32.0,87,30.12,10.0,East,9.2,-,N/A,,Overcast,100,2013-01-18 16:16:00
7:36 AM,35.6,32.0,87,30.13,10.0,ESE,5.8,-,N/A,,Overcast,110,2013-01-18 16:36:00
7:56 AM,35.6,32.0,87,30.14,10.0,ESE,4.6,-,N/A,,Overcast,120,2013-01-18 16:56:00
8:16 AM,35.6,32.0,87,30.15,10.0,ESE,4.6,-,N/A,,Overcast,120,2013-01-18 17:16:00
8:36 AM,35.6,30.2,81,30.15,10.0,SE,3.5,-,N/A,,Overcast,130,2013-01-18 17:36:00
8:56 AM,35.6,30.2,81,30.17,10.0,Calm,Calm,-,N/A,,Overcast,0,2013-01-18 17:56:00
9:16 AM,35.6,32.0,87,30.18,10.0,ENE,3.5,-,N/A,,Overcast,60,2013-01-18 18:16:00
9:36 AM,37.4,33.8,87,30.19,10.0,East,6.9,-,N/A,,Overcast,100,2013-01-18 18:36:00
9:56 AM,35.6,32.0,87,30.20,10.0,SE,4.6,-,N/A,,Overcast,130,2013-01-18 18:56:00
10:16 AM,37.4,30.2,75,30.21,10.0,SSW,3.5,-,N/A,,Overcast,210,2013-01-18 19:16:00
10:36 AM,35.6,30.2,81,30.22,10.0,SE,9.2,-,N/A,,Overcast,130,2013-01-18 19:36:00
10:56 AM,37.4,30.2,75,30.23,10.0,South,8.1,-,N/A,,Overcast,170,2013-01-18 19:56:00
11:16 AM,37.4,33.8,87,30.23,10.0,ESE,8.1,-,N/A,,Overcast,110,2013-01-18 20:16:00
11:36 AM,37.4,33.8,87,30.24,10.0,ESE,5.8,-,N/A,,Overcast,110,2013-01-18 20:36:00
11:56 AM,37.4,33.8,87,30.24,10.0,SE,5.8,-,N/A,,Overcast,130,2013-01-18 20:56:00
12:16 PM,37.4,33.8,87,30.25,10.0,ESE,5.8,-,N/A,,Overcast,120,2013-01-18 21:16:00
12:36 PM,37.4,33.8,87,30.24,10.0,East,8.1,-,N/A,,Overcast,100,2013-01-18 21:36:00
12:56 PM,37.4,32.0,81,30.24,10.0,East,6.9,-,N/A,,Overcast,100,2013-01-18 21:56:00
1:16 PM,37.4,32.0,81,30.23,10.0,East,6.9,-,N/A,,Overcast,100,2013-01-18 22:16:00
1:36 PM,37.4,33.8,87,30.24,10.0,ESE,6.9,-,N/A,,Overcast,120,2013-01-18 22:36:00
1:56 PM,37.4,33.8,87,30.24,10.0,SE,5.8,-,N/A,,Overcast,140,2013-01-18 22:56:00
2:16 PM,37.4,33.8,87,30.25,10.0,ESE,5.8,-,N/A,,Overcast,120,2013-01-18 23:16:00
2:36 PM,37.4,33.8,87,30.25,10.0,East,4.6,-,N/A,,Overcast,90,2013-01-18 23:36:00
2:56 PM,37.4,32.0,81,30.26,10.0,ESE,3.5,-,N/A,,Overcast,110,2013-01-18 23:56:00
3:16 PM,37.4,33.8,87,30.26,10.0,Calm,Calm,-,N/A,,Overcast,0,2013-01-19 00:16:00
3:36 PM,37.4,33.8,87,30.26,10.0,Calm,Calm,-,N/A,,Overcast,0,2013-01-19 00:36:00
3:56 PM,37.4,32.0,81,30.26,10.0,Calm,Calm,-,N/A,,Overcast,0,2013-01-19 00:56:00
4:16 PM,37.4,32.0,81,30.26,10.0,ESE,3.5,-,N/A,,Overcast,120,2013-01-19 01:16:00
4:36 PM,35.6,32.0,87,30.26,10.0,South,3.5,-,N/A,,Overcast,190,2013-01-19 01:36:00
4:56 PM,35.6,32.0,87,30.27,10.0,Calm,Calm,-,N/A,,Overcast,0,2013-01-19 01:56:00
5:16 PM,35.6,32.0,87,30.27,10.0,Calm,Calm,-,N/A,,Overcast,0,2013-01-19 02:16:00
5:36 PM,35.6,30.2,81,30.27,10.0,Calm,Calm,-,N/A,,Overcast,0,2013-01-19 02:36:00
5:56 PM,35.6,30.2,81,30.28,10.0,SSE,3.5,-,N/A,,Overcast,160,2013-01-19 02:56:00
6:16 PM,35.6,30.2,81,30.28,10.0,Calm,Calm,-,N/A,,Overcast,0,2013-01-19 03:16:00
6:36 PM,35.6,30.2,81,30.28,10.0,Calm,Calm,-,N/A,,Overcast,0,2013-01-19 03:36:00
6:56 PM,35.6,30.2,81,30.29,10.0,Calm,Calm,-,N/A,,Overcast,0,2013-01-19 03:56:00
7:16 PM,35.6,30.2,81,30.29,10.0,Calm,Calm,-,N/A,,Overcast,0,2013-01-19 04:16:00
7:36 PM,35.6,32.0,87,30.30,10.0,ESE,3.5,-,N/A,,Overcast,110,2013-01-19 04:36:00
7:56 PM,35.6,32.0,87,30.29,10.0,SE,4.6,-,N/A,,Overcast,130,2013-01-19 04:56:00
8:16 PM,35.6,32.0,87,30.29,10.0,ESE,5.8,-,N/A,,Overcast,120,2013-01-19 05:16:00
8:36 PM,35.6,30.2,81,30.29,10.0,SE,6.9,-,N/A,,Overcast,140,2013-01-19 05:36:00
8:56 PM,35.6,30.2,81,30.29,10.0,SE,6.9,-,N/A,,Overcast,140,2013-01-19 05:56:00
9:16 PM,33.8,30.2,87,30.28,10.0,SE,6.9,-,N/A,,Overcast,140,2013-01-19 06:16:00
9:36 PM,33.8,30.2,87,30.28,10.0,SE,6.9,-,N/A,,Overcast,130,2013-01-19 06:36:00
9:56 PM,33.8,30.2,87,30.28,10.0,SE,6.9,-,N/A,,Clear,130,2013-01-19 06:56:00
10:16 PM,33.8,30.2,87,30.28,10.0,SE,6.9,-,N/A,,Clear,140,2013-01-19 07:16:00
10:36 PM,33.8,30.2,87,30.29,10.0,SSE,5.8,-,N/A,,Clear,150,2013-01-19 07:36:00
10:56 PM,33.8,28.4,81,30.30,10.0,SSE,8.1,-,N/A,,Clear,160,2013-01-19 07:56:00
11:16 PM,33.8,30.2,87,30.30,10.0,South,5.8,-,N/A,,Overcast,170,2013-01-19 08:16:00
11:36 PM,33.8,30.2,87,30.31,10.0,SSE,5.8,-,N/A,,Overcast,160,2013-01-19 08:36:00
11:56 PM,33.8,30.2,87,30.30,10.0,SE,5.8,-,N/A,,Overcast,130,2013-01-19 08:56:00